Погода в Калиновке

Россия / Курская область     51°53′47″N   34°30′40″E
темп.,
°C
ветер,
м/с
пор.,
м/с
влажн.,
%
обл.,
%
осадки,
мм/ч
давл.,
гПа
погр.,
м
21 января, чт
чт2100:00−17ю47920 0.0 1025115
03:00−17ю499313 0.0 1025191
06:00−16ю5119071 0.0 1024230
09:00−14ю7139377 0.0 1022302
12:00−9ююз81693100 0.3 1021452
15:00−6ююз81594100 1.3 1018544
18:00−3юз81493100 0.2 1018525
21:00−2юз71395100 0.2 1017480
22 января, пт
пт2200:00−2юз61196100 0.0 1017432
03:00−1юз61195100 0.0 1018421
06:00−1ююз6119699 0.0 1016422
09:00−1ююз7119699 0.0 1016425
12:000ююз71097100 0.0 1016441
15:00+1ююз61196100 0.0 1015421
18:000ююз7129696 0.0 1014374
21:00+1ююз7129798 0.0 1014384
23 января, сб
сб2300:00+1ююз71397100 0.0 1013439
03:00+1ююз71396100 0.0 1013446
06:00+1ююз71397100 0.0 1012518
09:00+2ю61299100 0.0 1012351
12:00+2ю512100100 0.0 1012418
15:00+2ююз61399100 0.0 1011384
18:00+2ю51299100 0.0 1011336
21:00+2ю61298100 0.0 1011350
24 января, вс
вс2400:00+2ююв61298100 0.0 1011348
03:00+2ююв61298100 0.0 1010300
06:00+3ююв61298100 0.0 1009321
09:00+3ююв71497100 0.0 1010411
12:00+3ююв81693100 0.0 1009562
15:00+4ююв81686100 0.1 1008634
18:00+3ююв91987100 0.1 1007710
21:00+3ююв91789100 1.1 1006644
25 января, пн
пн2500:00+3ююв81693100 0.1 1006559
03:00+4ю71494100 0.3 1007434
06:00+4ююв61396100 0.9 1006376
09:00+3ю61197100 1.3 1008360
12:00+4ю51094100 0.0 1009418
15:00+3юв61096100 0.0 1007433
18:00+4юв71495100 0.0 1006448
21:00+4юв91894100 2.0 1004592